[[{"header":{"parameterUnit":"m.s-1","parameterCategory":1,"la1":30.2991,"la2":30.254,"lo1":-89.0895,"lo2":-89.0444,"dy":0.0017,"dx":0.0017,"nx":28,"ny":28,"refTime":"2025-03-18T09:00:00:Z","depth":0,"parameterNumber":2,"parameterNumberName":"U-component_of_WINDS"},"data":[0,0,0,0,0,0,0,0,0,0,0,0,0,0,0,0,0,0,0,0,0,0,0,0,0,0,0,0,0,0,0,0,0,0,0,0,0,0,0,0,0,0,0,0,0,0,0,0,0,0,0,0,0,0,0,0,0,0,-0.169,-0.169,0,-0.1697,-0.1697,-0.1698,-0.1692,-0.1692,-0.1692,-0.1692,-0.1696,-0.1696,-0.1697,0,0,0,0,0,0,0,0,0,0,0,0,0,-0.1666,-0.1667,-0.169,-0.169,-0.169,-0.1697,-0.1697,-0.1698,-0.1692,-0.1692,-0.1692,-0.1692,-0.1696,-0.1696,-0.1697,0,0,0,0,0,0,0,0,0,0,0,0,0,-0.1675,-0.1667,-0.169,-0.1689,-0.1689,-0.1697,-0.1697,-0.1698,-0.1693,-0.1692,-0.1692,-0.1692,-0.1696,-0.1696,-0.1697,-0.1706,0,0,-0.1698,-0.1698,0,0,0,0,0,0,0,0,-0.1675,-0.1676,-0.1689,-0.1689,-0.1689,-0.1694,-0.1691,-0.17,-0.1693,-0.1691,-0.1692,-0.1691,-0.1695,-0.1696,-0.1698,-0.1706,-0.1707,-0.1698,-0.1698,-0.1699,-0.1699,0,0,0,0,0,0,0,-0.1674,-0.1676,-0.1693,-0.1689,-0.1689,-0.1686,-0.1687,-0.1692,-0.1695,-0.1691,-0.1691,-0.1692,-0.1695,-0.1697,-0.1698,-0.1707,-0.1698,-0.1699,-0.1699,-0.1699,-0.1719,-0.172,0,0,0,0,0,0,-0.1674,-0.1675,-0.1693,-0.1693,-0.1681,-0.1686,-0.1688,-0.1692,-0.1695,-0.1695,-0.1692,-0.1692,-0.1697,-0.1697,-0.1698,-0.1707,-0.1699,-0.1699,-0.1699,-0.1719,-0.1719,-0.172,0,0,0,0,0,0,-0.1674,-0.1676,-0.1692,-0.1684,-0.1686,-0.1687,-0.1693,-0.1693,-0.1695,-0.1696,-0.1695,-0.1694,-0.1696,-0.1697,-0.1704,-0.1707,-0.1699,-0.17,-0.1719,-0.1719,-0.172,-0.1727,0,0,0,0,0,0,-0.1673,-0.1676,-0.1681,-0.1684,-0.1686,-0.17,-0.1693,-0.1693,-0.1696,-0.1696,-0.1698,-0.1697,-0.1696,-0.1703,-0.1704,-0.1708,-0.17,-0.1719,-0.1719,-0.172,-0.1726,-0.1728,-0.1729,0,0,0,0,0,-0.1672,-0.1683,-0.1681,-0.1683,-0.1693,-0.17,-0.1701,-0.17,-0.1697,-0.1701,-0.17,-0.1697,-0.1707,-0.1704,-0.1705,-0.1709,-0.1718,-0.1719,-0.1719,-0.1726,-0.1727,-0.1729,0,0,0,0,0,0,-0.168,-0.1683,-0.1682,-0.1694,-0.1697,-0.1699,-0.1705,-0.1702,-0.1706,-0.1705,-0.1702,-0.1703,-0.1709,-0.1709,-0.1706,-0.1716,-0.1712,-0.1712,-0.1716,-0.1717,-0.1718,-0.1718,-0.17,0,0,0,0,0,-0.1683,-0.1689,-0.1692,-0.1702,-0.1704,-0.1704,-0.1707,-0.1706,-0.1708,-0.1709,-0.1709,-0.171,-0.1713,-0.1715,-0.1718,-0.1726,-0.1725,-0.1729,-0.173,-0.1731,-0.1732,-0.1733,-0.1734,-0.1722,-0.1722,-0.1722,0,0,-0.1689,-0.1692,-0.1696,-0.1704,-0.1706,-0.171,-0.1705,-0.1711,-0.1714,-0.171,-0.1715,-0.1715,-0.1716,-0.1723,-0.1725,-0.1723,-0.1735,-0.1732,-0.1732,-0.1733,-0.1734,-0.1735,-0.1736,-0.1722,-0.1722,-0.1722,0,0,-0.1703,-0.1707,-0.1715,-0.1717,-0.172,-0.1719,-0.1721,-0.1723,-0.1723,-0.1729,-0.1725,-0.1727,-0.1733,-0.1733,-0.1733,-0.1744,-0.174,-0.1744,-0.175,-0.1751,-0.1752,-0.1753,-0.1755,-0.1756,-0.1745,-0.1745,-0.1745,0,-0.1711,-0.172,-0.1719,-0.1725,-0.1727,-0.1723,-0.1729,-0.173,-0.1734,-0.1734,-0.1732,-0.1737,-0.1737,-0.1742,-0.1744,-0.1746,-0.1746,-0.1744,-0.1753,-0.1753,-0.1754,-0.1756,-0.1757,-0.1745,-0.1745,-0.1745,-0.1745,0,-0.1727,-0.1733,-0.1739,-0.1742,-0.1745,-0.1751,-0.1749,-0.1751,-0.1749,-0.1748,-0.1752,-0.1752,-0.1753,-0.1754,-0.1753,-0.1758,-0.1756,-0.1753,-0.1748,-0.1756,-0.1757,-0.1758,-0.1746,-0.1746,-0.1746,-0.1746,0,0,-0.1749,-0.175,-0.1752,-0.1752,-0.1753,-0.1757,-0.1761,-0.1763,-0.1764,-0.1765,-0.1767,-0.1771,-0.1767,-0.1767,-0.1765,-0.1766,-0.1772,-0.1762,-0.1762,-0.1763,-0.1775,-0.1777,-0.1778,-0.1769,-0.1769,-0.1769,-0.1775,0,-0.1762,-0.1771,-0.1769,-0.1777,-0.178,-0.1775,-0.1778,-0.1778,-0.1776,-0.1777,-0.1775,-0.1777,-0.1773,-0.1773,-0.1774,-0.1771,-0.1774,-0.177,-0.1769,-0.1769,-0.1769,-0.1779,-0.1782,-0.1788,-0.1775,-0.1776,-0.1776,0,-0.1779,-0.1781,-0.1789,-0.1787,-0.1788,-0.1792,-0.1792,-0.1794,-0.1792,-0.1791,-0.179,-0.1786,-0.1788,-0.1783,-0.1784,-0.1781,-0.178,-0.1778,-0.1778,-0.1778,-0.1773,-0.1778,-0.179,-0.179,-0.1777,-0.1777,-0.1777,0,-0.1791,-0.1796,-0.1801,-0.1801,-0.1799,-0.1801,-0.18,-0.1799,-0.1799,-0.1798,-0.1798,-0.1797,-0.1796,-0.1795,-0.179,-0.1787,-0.1791,-0.1786,-0.1788,-0.1788,-0.1789,-0.1789,-0.1799,-0.1789,-0.1789,-0.1789,-0.1789,0,-0.1806,-0.181,-0.1806,-0.1809,-0.1813,-0.1809,-0.1813,-0.1811,-0.1809,-0.181,-0.1805,-0.1805,-0.1799,-0.1798,-0.1794,-0.1794,-0.1794,-0.1792,-0.1791,-0.1792,-0.1792,-0.1791,-0.1791,-0.1789,-0.1789,-0.1789,-0.1789,0,-0.182,-0.1818,-0.1822,-0.182,-0.1819,-0.1822,-0.1819,-0.182,-0.1817,-0.1818,-0.1818,-0.1813,-0.1812,-0.1807,-0.1804,-0.1801,-0.1802,-0.18,-0.1803,-0.1802,-0.1804,-0.1803,-0.1814,-0.1814,-0.1804,-0.1804,-0.1804,0,-0.183,-0.1833,-0.183,-0.1831,-0.183,-0.1831,-0.1831,-0.1826,-0.1826,-0.1823,-0.1824,-0.1822,-0.1821,-0.1818,-0.1813,-0.181,-0.1808,-0.1812,-0.1807,-0.1808,-0.1806,-0.1806,-0.1806,-0.1813,-0.1813,-0.1813,-0.1813,0,-0.1846,-0.1843,-0.1844,-0.1843,-0.1843,-0.1843,-0.1841,-0.1842,-0.1836,-0.1835,-0.1834,-0.1833,-0.1829,-0.1827,-0.1822,-0.1819,-0.1814,-0.1814,-0.1814,-0.1816,-0.1817,-0.1815,-0.1804,-0.1814,-0.1814,-0.1814,-0.1814,-0.1814,-0.1857,-0.1859,-0.1857,-0.1857,-0.1855,-0.1853,-0.1854,-0.185,-0.1849,-0.1847,-0.1843,-0.1842,-0.1837,-0.1831,-0.1828,-0.1826,-0.1823,-0.1824,-0.1824,-0.1824,-0.1824,-0.1817,-0.1825,-0.1825,-0.1825,-0.1825,-0.1825,0,-0.1871,-0.1869,-0.1869,-0.1867,-0.1866,-0.1862,-0.186,-0.1859,-0.1858,-0.1855,-0.1853,-0.185,-0.1846,-0.184,-0.1836,-0.1835,-0.1832,-0.1834,-0.1834,-0.1833,-0.1827,-0.1827,-0.1836,-0.1836,-0.1836,-0.1836,-0.1836,-0.1836,-0.1879,-0.1881,-0.1878,-0.1878,-0.1876,-0.1875,-0.1873,-0.1871,-0.1868,-0.1865,-0.1862,-0.1859,-0.1853,-0.1848,-0.1844,-0.1842,-0.1841,-0.1843,-0.184,-0.1835,-0.1834,-0.1833,-0.1832,-0.1843,-0.1843,-0.1846,-0.1846,-0.1846]},{"header":{"parameterUnit":"m.s-1","parameterCategory":1,"la1":30.2991,"la2":30.254,"lo1":-89.0895,"lo2":-89.0444,"dy":0.0017,"dx":0.0017,"nx":28,"ny":28,"refTime":"2025-03-18T09:00:00:Z","depth":0,"parameterNumber":3,"parameterNumberName":"V-component_of_WINDS"},"data":[0,0,0,0,0,0,0,0,0,0,0,0,0,0,0,0,0,0,0,0,0,0,0,0,0,0,0,0,0,0,0,0,0,0,0,0,0,0,0,0,0,0,0,0,0,0,0,0,0,0,0,0,0,0,0,0,0,0,5.3001,5.3,0,5.2906,5.2905,5.2904,5.2879,5.288,5.288,5.2881,5.2774,5.2771,5.2768,0,0,0,0,0,0,0,0,0,0,0,0,0,5.3154,5.3152,5.3001,5.3,5.2999,5.2906,5.2905,5.2904,5.2879,5.288,5.288,5.2881,5.2775,5.2771,5.2767,0,0,0,0,0,0,0,0,0,0,0,0,0,5.3076,5.3151,5.3001,5.2976,5.2972,5.2907,5.2905,5.2903,5.2879,5.288,5.288,5.2881,5.2777,5.2772,5.2767,5.2717,0,0,5.2751,5.2749,0,0,0,0,0,0,0,0,5.3081,5.307,5.2981,5.2977,5.2973,5.2906,5.292,5.2841,5.2878,5.2914,5.2881,5.2882,5.2817,5.2808,5.2788,5.2712,5.2708,5.2751,5.2748,5.2745,5.2744,0,0,0,0,0,0,0,5.3086,5.3074,5.2963,5.2979,5.2975,5.2966,5.2956,5.2905,5.2861,5.2911,5.2909,5.2898,5.2815,5.2793,5.2785,5.2706,5.2751,5.2746,5.2743,5.2741,5.2587,5.2586,0,0,0,0,0,0,5.3097,5.3079,5.2966,5.296,5.3031,5.2963,5.2952,5.2926,5.2862,5.2853,5.2898,5.2898,5.2801,5.2791,5.2782,5.2721,5.2745,5.2741,5.2738,5.2588,5.2586,5.2585,0,0,0,0,0,0,5.31,5.3087,5.297,5.3019,5.3004,5.2959,5.2931,5.2924,5.2902,5.2852,5.2843,5.2884,5.2802,5.2789,5.2735,5.2717,5.2738,5.2734,5.2589,5.2587,5.2586,5.2599,0,0,0,0,0,0,5.3105,5.3089,5.3071,5.3019,5.3001,5.2927,5.293,5.2921,5.2895,5.2894,5.2837,5.2828,5.2801,5.2742,5.2729,5.271,5.273,5.259,5.2588,5.2586,5.26,5.2598,5.2596,0,0,0,0,0,5.311,5.3076,5.307,5.3056,5.2979,5.2926,5.2915,5.2888,5.2893,5.2874,5.2842,5.283,5.2721,5.2737,5.2722,5.2701,5.2591,5.2589,5.2587,5.26,5.2598,5.2596,0,0,0,0,0,0,5.3122,5.3068,5.3061,5.3009,5.2973,5.2922,5.2897,5.2886,5.2845,5.2845,5.281,5.2797,5.2746,5.2718,5.2736,5.2651,5.2656,5.265,5.2671,5.2669,5.2667,5.2675,5.2725,0,0,0,0,0,5.3119,5.3084,5.3037,5.2996,5.2978,5.2941,5.2917,5.29,5.2859,5.2842,5.2806,5.2765,5.2722,5.2693,5.2651,5.2596,5.2583,5.2574,5.2572,5.2571,5.2567,5.2537,5.2533,5.2578,5.2578,5.2578,0,0,5.3112,5.3078,5.3057,5.2997,5.2967,5.2929,5.2928,5.2887,5.2858,5.2835,5.2783,5.2755,5.2707,5.2653,5.2627,5.2628,5.2552,5.2568,5.2568,5.2564,5.2535,5.253,5.2527,5.2576,5.2576,5.2577,0,0,5.3079,5.305,5.3014,5.2984,5.294,5.2916,5.2907,5.2859,5.284,5.2789,5.2771,5.2735,5.2661,5.2628,5.2601,5.256,5.2547,5.2547,5.2537,5.2509,5.2506,5.2502,5.2489,5.2484,5.2543,5.2543,5.2543,0,5.3074,5.302,5.2995,5.2957,5.2931,5.2913,5.2875,5.2846,5.2789,5.2771,5.2773,5.2682,5.2648,5.2587,5.2578,5.2556,5.2545,5.2553,5.2509,5.2505,5.2502,5.2488,5.2483,5.2543,5.2543,5.2543,5.2543,0,5.3017,5.2979,5.2954,5.2904,5.2875,5.2837,5.2805,5.2779,5.2765,5.274,5.2688,5.2647,5.2597,5.2581,5.2564,5.2518,5.252,5.2516,5.252,5.2498,5.2485,5.2479,5.2543,5.2543,5.2543,5.2543,0,0,5.2987,5.2927,5.2918,5.2896,5.2847,5.2816,5.2777,5.2732,5.271,5.2672,5.2638,5.2577,5.2575,5.2545,5.2524,5.25,5.2471,5.2499,5.2497,5.2496,5.2419,5.2423,5.2417,5.2463,5.2462,5.2461,5.2423,0,5.2949,5.2882,5.286,5.2804,5.2769,5.2752,5.2718,5.2683,5.266,5.2625,5.2597,5.2556,5.2554,5.2537,5.2511,5.248,5.2455,5.2482,5.243,5.2428,5.2443,5.241,5.2413,5.2379,5.2418,5.2417,5.2416,0,5.2895,5.2861,5.2802,5.2761,5.2745,5.2715,5.2673,5.264,5.2601,5.2585,5.2554,5.2537,5.2494,5.2502,5.2442,5.2461,5.2438,5.242,5.2418,5.2412,5.2421,5.2403,5.2368,5.2363,5.2407,5.2408,5.2409,0,5.2881,5.2819,5.2777,5.2758,5.2708,5.2688,5.2666,5.2628,5.2603,5.2565,5.2548,5.2504,5.248,5.2446,5.2417,5.2425,5.2361,5.2365,5.2346,5.2347,5.2333,5.2334,5.2294,5.2317,5.2318,5.2318,5.2318,0,5.2841,5.2806,5.2771,5.2745,5.2705,5.2679,5.264,5.2616,5.2583,5.2551,5.2532,5.2501,5.2465,5.243,5.2406,5.2362,5.235,5.2336,5.233,5.2338,5.234,5.2322,5.2324,5.2316,5.2317,5.2317,5.2317,0,5.2818,5.2793,5.2746,5.2704,5.2693,5.2666,5.2629,5.2602,5.2579,5.2538,5.2527,5.249,5.2447,5.2416,5.2359,5.2344,5.2296,5.229,5.2311,5.2308,5.2291,5.2293,5.2238,5.223,5.2259,5.2259,5.2258,0,5.2795,5.2768,5.2725,5.2704,5.2683,5.2649,5.2625,5.2598,5.2573,5.2528,5.2507,5.2464,5.2429,5.2362,5.2328,5.2285,5.2278,5.2262,5.2271,5.2281,5.2279,5.2281,5.2279,5.226,5.226,5.226,5.226,0,5.2756,5.2746,5.2714,5.2677,5.265,5.2619,5.2587,5.2571,5.2539,5.2511,5.247,5.2443,5.2388,5.2346,5.2301,5.2275,5.2262,5.2257,5.2251,5.2258,5.2272,5.2266,5.2308,5.2258,5.2259,5.2259,5.2259,5.2259,5.2732,5.2709,5.2677,5.2641,5.2616,5.2588,5.2562,5.2537,5.2503,5.2459,5.2445,5.2403,5.2365,5.2304,5.2278,5.2243,5.2243,5.2233,5.223,5.2228,5.223,5.2278,5.2234,5.2234,5.2234,5.2234,5.2234,0,5.2694,5.2673,5.2641,5.26,5.2573,5.2567,5.2532,5.2509,5.2473,5.244,5.2407,5.236,5.232,5.2285,5.2242,5.2221,5.2214,5.2211,5.2212,5.2207,5.2232,5.2242,5.2218,5.2218,5.2218,5.2218,5.2218,5.2218,5.2671,5.2632,5.2618,5.2566,5.2544,5.2506,5.2487,5.246,5.2435,5.2385,5.2353,5.2331,5.2297,5.2253,5.2216,5.2206,5.2192,5.219,5.2179,5.2203,5.2205,5.2207,5.2217,5.2187,5.2187,5.2157,5.2157,5.2157]}]]